| time (UTC) | temp F | wind direction | speed MPH | gust MPH | rain 1hr in | rain 24hr in | rain mn in | humidity % | barometer mb |
| 20260903010109 | 67 | 151 | 3.0 | 10.0 | 0.00 | 0.40 | 0.40 | 91 | 960.4 |
| 20260903004559 | 67 | 189 | 1.0 | 6.0 | 0.00 | 0.40 | 0.40 | 91 | 959.7 |
| 20260903003108 | 67 | 196 | 2.0 | 10.0 | 0.00 | 0.40 | 0.40 | 91 | 960.0 |
| 20260903001601 | 67 | 179 | 1.0 | 11.0 | 0.00 | 0.40 | 0.40 | 91 | 960.1 |
| 20260903000053 | 67 | 126 | 3.0 | 16.0 | 0.00 | 0.40 | 0.40 | 91 | 960.0 |
| 20260902234554 | 67 | 225 | 4.0 | 12.0 | 0.00 | 0.40 | 0.40 | 91 | 959.8 |
| 20260902233052 | 68 | 219 | 2.0 | 10.0 | 0.00 | 0.40 | 0.40 | 91 | 959.8 |
| 20260902231552 | 68 | 143 | 1.0 | 6.0 | 0.00 | 0.40 | 0.40 | 91 | 960.3 |
| 20260902230058 | 68 | 184 | 1.0 | 7.0 | 0.00 | 0.40 | 0.40 | 91 | 959.9 |
| 20260902224555 | 68 | 126 | 1.0 | 5.0 | 0.00 | 0.40 | 0.40 | 91 | 959.8 |
| 20260902223049 | 68 | 111 | 2.0 | 9.0 | 0.00 | 0.40 | 0.40 | 91 | 959.7 |
| 20260902221547 | 68 | 107 | 3.0 | 8.0 | 0.00 | 0.40 | 0.40 | 91 | 960.0 |
| 20260902220049 | 68 | 138 | 1.0 | 7.0 | 0.00 | 0.40 | 0.40 | 91 | 960.4 |
| 20260902214549 | 68 | 98 | 0.0 | 5.0 | 0.00 | 0.40 | 0.40 | 91 | 960.5 |
| 20260902213045 | 69 | 173 | 1.0 | 6.0 | 0.00 | 0.40 | 0.40 | 91 | 960.5 |
| 20260902211646 | 69 | 143 | 3.0 | 8.0 | 0.00 | 0.40 | 0.40 | 91 | 960.7 |
| 20260902210044 | 69 | 200 | 5.0 | 12.0 | 0.00 | 0.40 | 0.40 | 91 | 960.8 |
| 20260902204543 | 69 | 200 | 1.0 | 10.0 | 0.00 | 0.40 | 0.40 | 91 | 960.7 |
| 20260902203042 | 68 | 144 | 0.0 | 8.0 | 0.00 | 0.40 | 0.40 | 91 | 960.4 |
| 20260902201551 | 68 | 124 | 1.0 | 7.0 | 0.00 | 0.40 | 0.40 | 91 | 960.7 |
| 20260902200045 | 68 | 141 | 3.0 | 7.0 | 0.00 | 0.40 | 0.40 | 91 | 960.9 |
| 20260902194549 | 68 | 182 | 1.0 | 5.0 | 0.00 | 0.40 | 0.40 | 91 | 961.0 |
| 20260902193043 | 68 | 202 | 1.0 | 7.0 | 0.00 | 0.40 | 0.40 | 92 | 961.5 |
| 20260902191537 | 68 | 186 | 1.0 | 5.0 | 0.00 | 0.40 | 0.40 | 92 | 961.4 |
| 20260902190036 | 68 | 131 | 1.0 | 7.0 | 0.00 | 0.40 | 0.40 | 92 | 961.5 |
| 20260902184540 | 68 | 181 | 1.0 | 6.0 | 0.00 | 0.40 | 0.40 | 92 | 961.6 |
| 20260902183035 | 68 | 65 | 1.0 | 6.0 | 0.00 | 0.40 | 0.40 | 92 | 961.5 |
| 20260902181538 | 68 | 129 | 2.0 | 8.0 | 0.00 | 0.40 | 0.40 | 92 | 961.6 |
| 20260902180036 | 68 | 117 | 1.0 | 5.0 | 0.00 | 0.40 | 0.40 | 92 | 961.9 |
| 20260902174533 | 67 | 143 | 1.0 | 8.0 | 0.00 | 0.40 | 0.40 | 92 | 962.0 |
| 20260902173031 | 67 | 125 | 2.0 | 8.0 | 0.00 | 0.40 | 0.40 | 92 | 962.3 |
| 20260902171530 | 67 | 103 | 3.0 | 7.0 | 0.00 | 0.40 | 0.40 | 92 | 962.4 |
| 20260902170029 | 67 | 111 | 1.0 | 4.0 | 0.00 | 0.40 | 0.40 | 92 | 962.4 |
| 20260902164529 | 68 | 122 | 2.0 | 4.0 | 0.01 | 0.40 | 0.40 | 92 | 962.6 |
| 20260902163027 | 68 | 103 | 0.0 | 2.0 | 0.05 | 0.40 | 0.40 | 92 | 962.7 |
| 20260902161535 | 68 | 108 | 1.0 | 4.0 | 0.08 | 0.40 | 0.40 | 92 | 962.9 |
| 20260902160026 | 69 | 115 | 0.0 | 4.0 | 0.13 | 0.40 | 0.40 | 92 | 962.4 |
| 20260902154524 | 69 | 242 | 0.0 | 2.0 | 0.15 | 0.39 | 0.39 | 92 | 962.2 |
| 20260902153023 | 68 | 257 | 0.0 | 3.0 | 0.30 | 0.35 | 0.35 | 92 | 962.5 |
| 20260902151527 | 68 | 258 | 1.0 | 7.0 | 0.30 | 0.32 | 0.32 | 92 | 962.6 |
| 20260902150022 | 68 | 168 | 3.0 | 8.0 | 0.26 | 0.27 | 0.27 | 92 | 961.8 |
| 20260902144521 | 68 | 212 | 3.0 | 15.0 | 0.24 | 0.24 | 0.24 | 92 | 961.7 |
| 20260902143018 | 69 | 177 | 2.0 | 7.0 | 0.05 | 0.05 | 0.05 | 92 | 962.2 |
| 20260902141517 | 69 | 190 | 1.0 | 4.0 | 0.02 | 0.02 | 0.02 | 92 | 961.8 |
| 20260902140017 | 69 | 179 | 3.0 | 8.0 | 0.01 | 0.01 | 0.01 | 92 | 962.3 |
| 20260902134524 | 69 | 205 | 3.0 | 8.0 | 0.00 | 0.00 | 0.00 | 92 | 962.6 |
| 20260902133014 | 69 | 187 | 3.0 | 10.0 | 0.00 | 0.00 | 0.00 | 92 | 962.4 |
| 20260902131513 | 69 | 150 | 2.0 | 12.0 | 0.00 | 0.00 | 0.00 | 92 | 961.8 |
| 20260902130013 | 69 | 165 | 2.0 | 7.0 | 0.00 | 0.00 | 0.00 | 92 | 961.9 |
| 20260902124514 | 69 | 115 | 2.0 | 8.0 | 0.00 | 0.01 | 0.00 | 92 | 961.8 |
| 20260902123013 | 69 | 190 | 3.0 | 11.0 | 0.00 | 0.01 | 0.00 | 92 | 961.9 |
| 20260902121509 | 69 | 178 | 2.0 | 9.0 | 0.00 | 0.01 | 0.00 | 92 | 961.7 |
| 20260902120006 | 69 | 169 | 2.0 | 7.0 | 0.00 | 0.01 | 0.00 | 92 | 961.5 |
| 20260902114507 | 69 | 149 | 2.0 | 7.0 | 0.00 | 0.08 | 0.00 | 92 | 961.6 |
| 20260902113003 | 69 | 172 | 2.0 | 9.0 | 0.00 | 0.08 | 0.00 | 92 | 961.3 |
| 20260902111600 | 69 | 163 | 2.0 | 7.0 | 0.00 | 0.08 | 0.00 | 92 | 961.2 |
| 20260902104617 | 69 | 165 | 0.0 | 7.0 | 0.00 | 0.10 | 0.00 | 92 | 961.3 |
| 20260902103054 | 69 | 175 | 2.0 | 7.0 | 0.00 | 0.10 | 0.00 | 92 | 961.4 |
| 20260902101557 | 69 | 187 | 2.0 | 7.0 | 0.00 | 0.10 | 0.00 | 92 | 961.5 |
| 20260902100114 | 69 | 202 | 2.0 | 9.0 | 0.00 | 0.10 | 0.00 | 92 | 961.7 |
| 20260902094554 | 69 | 181 | 1.0 | 5.0 | 0.00 | 0.10 | 0.00 | 92 | 961.5 |
| 20260902093100 | 68 | 178 | 1.0 | 4.0 | 0.00 | 0.10 | 0.00 | 91 | 961.6 |
| 20260902091552 | 68 | 190 | 1.0 | 3.0 | 0.00 | 0.10 | 0.00 | 91 | 961.5 |
| 20260902090053 | 68 | 192 | 2.0 | 5.0 | 0.00 | 0.10 | 0.00 | 91 | 961.5 |
| 20260902084554 | 68 | 213 | 2.0 | 5.0 | 0.00 | 0.13 | 0.00 | 91 | 961.6 |
| 20260902083102 | 68 | 182 | 2.0 | 6.0 | 0.00 | 0.13 | 0.00 | 91 | 961.5 |
| 20260902081608 | 68 | 186 | 2.0 | 4.0 | 0.00 | 0.13 | 0.00 | 91 | 961.4 |
| 20260902080056 | 68 | 175 | 1.0 | 5.0 | 0.00 | 0.13 | 0.00 | 91 | 961.3 |
| 20260902074547 | 68 | 244 | 0.0 | 1.0 | 0.00 | 0.13 | 0.00 | 91 | 961.4 |
| 20260902073045 | 68 | 244 | 0.0 | 3.0 | 0.00 | 0.13 | 0.00 | 91 | 961.3 |
| 20260902071558 | 67 | 244 | 0.0 | 3.0 | 0.00 | 0.13 | 0.00 | 91 | 961.2 |
| 20260902070046 | 67 | 244 | 0.0 | 3.0 | 0.00 | 0.13 | 0.00 | 91 | 961.2 |
| 20260902064548 | 68 | 244 | 1.0 | 3.0 | 0.00 | 0.13 | 0.00 | 91 | 961.5 |
| 20260902063106 | 68 | 244 | 1.0 | 3.0 | 0.00 | 0.13 | 0.00 | 90 | 961.4 |
| 20260902061550 | 68 | 244 | 1.0 | 3.0 | 0.00 | 0.13 | 0.00 | 91 | 961.5 |
| 20260902060054 | 68 | 244 | 0.0 | 2.0 | 0.00 | 0.13 | 0.00 | 90 | 961.6 |
| 20260902054542 | 68 | 244 | 0.0 | 1.0 | 0.00 | 0.13 | 0.00 | 90 | 961.4 |
| 20260902053041 | 69 | 244 | 0.0 | 3.0 | 0.00 | 0.13 | 0.00 | 91 | 961.6 |
| 20260902051536 | 69 | 244 | 1.0 | 3.0 | 0.00 | 0.13 | 0.00 | 91 | 961.5 |
| 20260902050035 | 69 | 322 | 0.0 | 2.0 | 0.00 | 0.13 | 0.00 | 90 | 961.4 |
| 20260902044541 | 69 | 323 | 0.0 | 1.0 | 0.00 | 0.13 | 0.00 | 90 | 961.3 |
| 20260902043032 | 69 | 323 | 0.0 | 1.0 | 0.00 | 0.13 | 0.00 | 90 | 961.1 |
| 20260902041534 | 69 | 324 | 0.0 | 1.0 | 0.00 | 0.13 | 0.00 | 90 | 961.0 |
| 20260902040028 | 70 | 324 | 0.0 | 0.0 | 0.00 | 0.13 | 0.00 | 90 | 960.9 |
| 20260902034525 | 70 | 324 | 1.0 | 3.0 | 0.00 | 0.13 | 0.13 | 90 | 960.8 |
| 20260902033024 | 71 | 335 | 0.0 | 4.0 | 0.00 | 0.13 | 0.13 | 90 | 960.7 |
| 20260902031536 | 71 | 300 | 0.0 | 0.0 | 0.00 | 0.13 | 0.13 | 90 | 960.7 |
| 20260902030024 | 71 | 300 | 0.0 | 0.0 | 0.00 | 0.13 | 0.13 | 89 | 960.8 |
| 20260902024524 | 71 | 300 | 0.0 | 2.0 | 0.00 | 0.14 | 0.13 | 89 | 960.8 |
| 20260902023023 | 71 | 300 | 0.0 | 0.0 | 0.00 | 0.14 | 0.13 | 88 | 960.8 |
| 20260902021531 | 71 | 300 | 0.0 | 1.0 | 0.00 | 0.14 | 0.13 | 88 | 960.8 |
| 20260902020027 | 72 | 300 | 0.0 | 2.0 | 0.00 | 0.14 | 0.13 | 88 | 960.8 |
| 20260902014542 | 72 | 297 | 0.0 | 0.0 | 0.00 | 0.18 | 0.13 | 88 | 960.7 |
| 20260902013020 | 72 | 297 | 0.0 | 1.0 | 0.00 | 0.18 | 0.13 | 87 | 960.6 |